Regional Weather Roundup
Issued by NWS

Home | Current Version | Previous Version | Graphics & Text | Print | Product List | Glossary On
Versions: 1 2 3 4 5 6 7 8 9 10 11 12 13 14 15 16 17 18 19 20 21 22 23 24 25 26 27 28 29 30 31 32 33 34 35 36 37 38 39 40 41 42 43 44 45 46 47 48 49 50
247
ASUS43 KDTX 260010
RWRMI
MICHIGAN HOURLY REGIONAL WEATHER ROUNDUP
NATIONAL WEATHER SERVICE DETROIT/PONTIAC MI
ISSUED BY NATIONAL WEATHER SERVICE GRAND RAPIDS MI
800 PM EDT TUE JUL 25 2017

NOTE: "FAIR" INDICATES FEW OR NO CLOUDS BELOW 12,000 FEET WITH NO
SIGNIFICANT WEATHER AND/OR OBSTRUCTION TO VISIBILITY.

MIZ047>049-052>055-059>063-066>070-074>076-081>083-260100-
SOUTHEAST LOWER MICHIGAN

CITY           SKY/WX    TMP DP  RH WIND       PRES   REMARKS
ADRIAN         CLEAR     75  57  53 SE6       30.21F
6HR MIN TEMP:  75; 6HR MAX TEMP:  79;

ALMA           SUNNY     77  50  39 SE3       30.18F
ANN ARBOR      CLEAR     75  57  53 SE7       30.19F
BAD AXE        CLEAR     71  50  48 E3        30.21F
6HR MIN TEMP:  71; 6HR MAX TEMP:  76;

DETROIT CITY   PTCLDY    75  54  47 SE5       30.20F
6HR MIN TEMP:  74; 6HR MAX TEMP:  77;

DETROIT        PTCLDY    76  58  53 SE7       30.21S
6HR MIN TEMP:  76; 6HR MAX TEMP:  80;

FLINT          CLEAR     75  56  51 S6        30.20F
6HR MIN TEMP:  75; 6HR MAX TEMP:  81;

GROSSE ILE     PTCLDY    72  62  71 S6        30.20F
6HR MIN TEMP:  72; 6HR MAX TEMP:  78;

HILLSDALE      PTSUNNY   73  52  46 E6        30.20F
HOWELL         CLEAR     73  56  55 CALM      30.20F
6HR MIN TEMP:  73; 6HR MAX TEMP:  77;


CITY           SKY/WX    TMP DP  RH WIND       PRES   REMARKS
JACKSON        SUNNY     78  51  38 S8        30.19F
6HR MIN TEMP:  77; 6HR MAX TEMP:  81; 6HR PCP: TRACE;

LANSING        SUNNY     75  53  46 E7        30.18F
6HR MIN TEMP:  75; 6HR MAX TEMP:  81;

MASON          SUNNY     73  56  54 E5        30.19F
MONROE         CLEAR     73  60  63 E5        30.19F
6HR MIN TEMP:  73; 6HR MAX TEMP:  78;

MT. CLEMENS    PTCLDY    74  59  60 S3        30.19S
6HR MIN TEMP:  74; 6HR MAX TEMP:  77;

PONTIAC        PTCLDY    77  55  46 CALM      30.20S
6HR MIN TEMP:  75; 6HR MAX TEMP:  79;

PORT HOPE        N/A     70  56  61 SE8       30.20F
6HR MIN TEMP:  69; 6HR MAX TEMP:  71;

PORT HURON     CLEAR     73  55  53 CALM      30.22S
TRI CITIES     SUNNY     77  55  46 S6        30.19F
6HR MIN TEMP:  76; 6HR MAX TEMP:  80;

YPSILANTI      CLEAR     76  58  53 SE8       30.20F
6HR MIN TEMP:  76; 6HR MAX TEMP:  83;

$$
MIZ043>046-050>051-056>058-064>065-071>073-077>080-260100-
SOUTHWEST LOWER MICHIGAN

CITY           SKY/WX    TMP DP  RH WIND       PRES   REMARKS
BATTLE CREEK   SUNNY     77  52  41 SE9       30.18F
6HR MIN TEMP:  77; 6HR MAX TEMP:  81;

BENTON HARBOR  PTSUNNY   72  62  71 CALM      30.15F
6HR MIN TEMP:  72; 6HR MAX TEMP:  80;

BIG RAPIDS     SUNNY     76  52  43 SE13      30.15S
6HR MIN TEMP:  75; 6HR MAX TEMP:  79;

COLDWATER      CLOUDY    74  56  55 SE3       30.18F
6HR MIN TEMP:  74; 6HR MAX TEMP:  79;

HOLLAND        SUNNY     73  61  65 S5        30.15F
6HR MIN TEMP:  72; 6HR MAX TEMP:  79;

GRAND RAPIDS   PTSUNNY   77  53  43 S9        30.16F
6HR MIN TEMP:  77; 6HR MAX TEMP:  81;

KALAMAZOO      CLOUDY    78  51  38 VRB3      30.17F
6HR MIN TEMP:  78; 6HR MAX TEMP:  81;

MARSHALL       SUNNY     76  54  46 SE5       30.17F
6HR MIN TEMP:  75; 6HR MAX TEMP:  80;

MOUNT PLEASANT SUNNY     78  47  34 S5        30.17F
6HR MIN TEMP:  78; 6HR MAX TEMP:  81;

MUSKEGON       PTSUNNY   74  57  55 S5        30.14F
6HR MIN TEMP:  74; 6HR MAX TEMP:  79;

STURGIS        MOSUNNY   74  56  54 SE7       30.17F
6HR MIN TEMP:  74; 6HR MAX TEMP:  77;

$$
MIZ016>042-260100-
NORTHERN LOWER MICHIGAN

CITY           SKY/WX    TMP DP  RH WIND       PRES   REMARKS
ALPENA         SUNNY     72  57  59 SE8       30.17F
6HR MIN TEMP:  72; 6HR MAX TEMP:  78;

BEAVER ISLAND  CLOUDY    73  58  60 S3        30.12F
6HR MIN TEMP:  72; 6HR MAX TEMP:  77;

BELLAIRE       CLOUDY    76  61  59 CALM      30.12F
6HR MIN TEMP:  75; 6HR MAX TEMP:  80;

CADILLAC       MOSUNNY   77  54  45 S7        30.15F
CHARLEVOIX     SUNNY     71  58  64 N5        30.16R
GAYLORD        SUNNY     76  53  44 S7        30.15F
6HR MIN TEMP:  76; 6HR MAX TEMP:  81;

HOUGHTON LAKE  SUNNY     74  55  51 S10       30.17F
6HR MIN TEMP:  74; 6HR MAX TEMP:  80;

MANISTEE       CLOUDY    72  61  68 W9        30.12S
OSCODA         SUNNY     71  53  53 SE7       30.18F
6HR MIN TEMP:  71; 6HR MAX TEMP:  76;

PELLSTON       SUNNY     74  56  53 E6        30.14F
6HR MIN TEMP:  74; 6HR MAX TEMP:  81;

TRAVERSE CITY  PTSUNNY   81  56  42 VRB5      30.10F
6HR MIN TEMP:  79; 6HR MAX TEMP:  83;

LUDINGTON      CLOUDY    71  60  70 SW9       30.13S
6HR MIN TEMP:  71; 6HR MAX TEMP:  75;

$$
MIZ007>008-015-260100-
EASTERN UPPER MICHIGAN

CITY           SKY/WX    TMP DP  RH WIND       PRES   REMARKS
KINROSS        SUNNY     70  56  61 S8        30.14F
6HR MIN TEMP:  70; 6HR MAX TEMP:  77;

MACKINAC ISLAN SUNNY     69  53  56 SE6       30.14S
6HR MIN TEMP:  69; 6HR MAX TEMP:  74;

NEWBERRY       HAZE      68  59  74 S8        30.10F VSB 1/2
6HR MIN TEMP:  68; 6HR MAX TEMP:  74;

S. S. MARIE    SUNNY     74  57  55 SE8       30.12F
6HR MIN TEMP:  74; 6HR MAX TEMP:  79;

$$
MIZ004>006-011>014-085-260100-
CENTRAL UPPER MICHIGAN

CITY           SKY/WX    TMP DP  RH WIND       PRES   REMARKS
MANISTIQUE     CLOUDY    67  64  89 S8        30.09F
6HR MIN TEMP:  67; 6HR MAX TEMP:  71;

ESCANABA       MOSUNNY   71  63  75 S9        30.08S
6HR MIN TEMP:  71; 6HR MAX TEMP:  76;

MENOMINEE      CLOUDY    72  61  68 S12       30.08F
6HR MIN TEMP:  72; 6HR MAX TEMP:  77;

SAWYER-GWINN   SUNNY     72  61  68 S15G21    30.06S
$$
MIZ001>003-009>011-084-260100-
WESTERN UPPER MICHIGAN

CITY           SKY/WX    TMP DP  RH WIND       PRES   REMARKS
IRON MOUNTAIN  CLOUDY    73  59  61 S9        30.05F
6HR MIN TEMP:  71; 6HR MAX TEMP:  76;

HOUGHTON       CLOUDY    75  53  46 S6        29.98F
6HR MIN TEMP:  75; 6HR MAX TEMP:  81;

COPPER HARBOR    N/A     71  53  52 VRB5      29.95F
6HR MIN TEMP:  71; 6HR MAX TEMP:  77;

IRONWOOD       CLOUDY    72  61  68 S10G21    29.97F
6HR MIN TEMP:  72; 6HR MAX TEMP:  77; 6HR PCP: TRACE;

$$

ABBREVIATIONS USED IN REMARKS
   TC - TEMPERATURE IN CELSIUS
  WCI - WIND CHILL INDEX
   HX - HEAT INDEX
  VSB - VISIBILITY





USA.gov is the U.S. government's official web portal to all federal, state and local government web resources and services.